Regional Weather Roundup
Issued by NWS

Home | Current Version | Previous Version | Graphics & Text | Print | Product List | Glossary On
Versions: 1 2 3 4 5 6 7 8 9 10 11 12 13 14 15 16 17 18 19 20 21 22 23 24 25 26 27 28 29 30 31 32 33 34 35 36 37 38 39 40 41 42 43 44 45 46 47 48 49 50
000
ASUS43 KOAX 210402
RWRNE

WEATHER ROUNDUP FOR NEBRASKA
NATIONAL WEATHER SERVICE OMAHA NE
1000 PM CST FRI JAN 20 2017

NOTES: SATELLITE DATA IS BEING USED TO AUGMENT CLOUD COVER ABOVE
       12000 FEET.
       "FAIR" INDICATES FEW OR NO CLOUDS BELOW 12,000 FEET WITH NO
       SIGNIFICANT WEATHER AND/OR OBSTRUCTIONS TO VISIBILITY.

  * THESE STATIONS DO NOT REPORT WEATHER SUCH AS RAIN...SNOW OR FOG.

NEZ001>004-019>022-054>056-210500-
NEBRASKA PANHANDLE

CITY           SKY/WX    TMP DP  RH WIND       PRES   REMARKS
SCOTTSBLUFF    CLOUDY    34  31  88 W6        29.40S WCI  29
ALLIANCE       CLOUDY    34  32  92 W7        29.38F WCI  28
CHADRON        CLOUDY    35  32  88 NW13      29.38S WCI  26
SIDNEY         CLOUDY    34  30  85 NW9       29.41F WCI  27
$$

NEZ057>060-069>072-079>082-210500-
SOUTHWEST NEBRASKA

CITY           SKY/WX    TMP DP  RH WIND       PRES   REMARKS
NORTH PLATTE   LGT RAIN  36  32  85 N6        29.41R WCI  31
IMPERIAL       CLOUDY    36  32  85 NW9       29.42S WCI  29
LEXINGTON      CLOUDY    36  34  92 SW6       29.39F FOG     WCI  31
MCCOOK         CLOUDY    38  36  92 W6        29.41R WCI  33
OGALLALA       CLOUDY    38  35  87 NW10      29.41S WCI  31
$$

NEZ005>010-023>029-035>040-094-210500-
NORTH CENTRAL NEBRASKA

CITY           SKY/WX    TMP DP  RH WIND       PRES   REMARKS
VALENTINE      MOCLDY    36  29  75 W7        29.34F WCI  30
AINSWORTH      CLOUDY    34  31  90 SW6       29.35S WCI  29
BROKEN BOW     CLOUDY    34  33  96 W3        29.37S FOG
O`NEILL        CLOUDY    39  39  99 S5        29.38S FOG
ORD            FOG       37  35  92 SW7       29.37F VSB 1   WCI  32
THEDFORD       CLOUDY    34  31  90 SW5       29.38S WCI  30
$$

NEZ041-046>049-061>064-073>077-083>087-210500-
SOUTH CENTRAL NEBRASKA

CITY           SKY/WX    TMP DP  RH WIND       PRES   REMARKS
GRAND ISLAND   FOG       38  38 100 S5        29.39S VSB 1   WCI  34
AURORA         FOG       39  39 100 SW5       29.39F VSB 3/4
HASTINGS       CLOUDY    38  37  97 CALM      29.40S FOG
HEBRON         LGT RAIN  37  37 100 CALM      29.41S VSB 1/4
HOLDREGE       CLOUDY    36  35  97 W9        29.39S WCI  29
KEARNEY *      CLOUDY    37 -11  12 S3        29.39F
YORK           FOG       39  39 100 CALM      29.40F VSB 1/4
$$

NEZ011>018-030>034-042>045-210500-
NORTHEAST NEBRASKA

CITY           SKY/WX    TMP DP  RH WIND       PRES   REMARKS
NORFOLK        CLOUDY    38  37  97 SE9       29.39F WCI  31
ALBION         LGT RAIN N/A N/A N/A S3        29.39F VSB 1/2
BLAIR          DRZL/FOG  41  40  98 SE9       29.42S VSB 3/4
FREMONT        LGT RAIN  40  40 100 E6        29.42F
TEKAMAH        CLOUDY    37  36  96 CALM      29.43F FOG
WAYNE          RAIN      38  38  99 SE8       29.41F WCI  33
$$

NEZ050>053-065>068-078-088>093-210500-
SOUTHEAST NEBRASKA

CITY           SKY/WX    TMP DP  RH WIND       PRES   REMARKS
LINCOLN        CLOUDY    42  42 100 SW3       29.42F FOG
OMAHA EPPLEY   CLOUDY    41  38  89 SE5       29.43F FOG
BEATRICE       RAIN      44  44 100 SE5       29.40F
FALLS CITY     LGT RAIN  45  45 100 S3        29.43S
NEBRASKA CITY  LGT RAIN  41  41 100 S3        29.42F VSB 1/4
PLATTSMOUTH    FOG       41  39  93 SE6       29.42F VSB 1/4
$$

NEZ044-045-051>053-067-210500-
OMAHA AREA

CITY           SKY/WX    TMP DP  RH WIND       PRES   REMARKS
OMAHA EPPLEY   CLOUDY    41  38  89 SE5       29.43F FOG
BLAIR          DRZL/FOG  41  40  98 SE9       29.42S VSB 3/4
FREMONT        LGT RAIN  40  40 100 E6        29.42F
MILLARD        DRZL/FOG  43  42  97 E3        29.42F VSB 1/2
OFFUTT AFB     FOG       41  41 100 E6        29.42F VSB 3/4
PLATTSMOUTH    FOG       41  39  93 SE6       29.42F VSB 1/4
WAHOO          FOG       39  38  97 SE3       29.42S VSB 1/4
$$




USA.gov is the U.S. government's official web portal to all federal, state and local government web resources and services.